KB4ID Weather Reports


Display with metric or nautical units.
time (UTC)temp
F
wind
direction
speed
MPH
gust
MPH
rain 1hr
in
rain 24hr
in
rain mn
in
humidity
%
barometer
mb
20190318173405 58 318 0.0 0.0 0.00 0.00 0.00 39 1021.6
20190318171406 56 323 1.0 0.0 0.00 0.00 0.00 43 1021.6
20190318165406 56 45 0.0 1.0 0.00 0.00 0.00 46 1022.0
20190318164405 55 57 1.0 0.0 0.00 0.00 0.00 44 1022.0
20190318160405 54 38 0.0 0.0 0.00 0.00 0.00 50 1022.3
20190318155406 53 17 0.0 0.0 0.00 0.00 0.00 52 1022.3
20190318154405 52 256 0.0 0.0 0.00 0.00 0.00 53 1022.3
20190318153405 51 94 0.0 4.0 0.00 0.00 0.00 56 1022.3
20190318152405 50 11 0.0 0.0 0.00 0.00 0.00 57 1022.3
20190318151405 49 43 0.0 0.0 0.00 0.00 0.00 58 1022.3
20190318150405 49 22 0.0 1.0 0.00 0.00 0.00 58 1022.3
20190318143405 48 298 0.0 0.0 0.00 0.00 0.00 61 1022.0
20190318140405 45 321 0.0 0.0 0.00 0.00 0.00 68 1022.0
20190318135405 43 321 0.0 0.0 0.00 0.00 0.00 68 1021.6
20190318134405 42 321 0.0 0.0 0.00 0.00 0.00 74 1021.6
20190318132405 39 78 0.0 0.0 0.00 0.00 0.00 84 1021.6
20190318125405 34 126 0.0 0.0 0.00 0.00 0.00 95 1021.6
20190318123405 31 126 0.0 0.0 0.00 0.00 0.00 95 1021.3
20190318115405 29 126 0.0 0.0 0.00 0.00 0.00 92 1020.9
20190318114405 29 126 0.0 0.0 0.00 0.00 0.00 92 1020.9
20190318113405 30 126 0.0 0.0 0.00 0.00 0.00 92 1020.9
20190318111405 30 126 0.0 0.0 0.00 0.00 0.00 91 1020.6
20190318105404 30 126 0.0 0.0 0.00 0.00 0.00 91 1020.6
20190318104405 30 126 0.0 0.0 0.00 0.00 0.00 91 1020.6
20190318103405 30 126 0.0 0.0 0.00 0.00 0.00 90 1020.3
20190318100404 30 126 0.0 0.0 0.00 0.00 0.00 90 1020.3
20190318095405 30 126 0.0 0.0 0.00 0.00 0.00 90 1020.3
20190318094405 31 126 0.0 0.0 0.00 0.00 0.00 90 1020.3
20190318093404 31 126 0.0 0.0 0.00 0.00 0.00 89 1020.3
20190318091405 31 126 0.0 0.0 0.00 0.00 0.00 89 1020.3
20190318090405 31 126 0.0 0.0 0.00 0.00 0.00 88 1019.9
20190318085405 31 126 0.0 0.0 0.00 0.00 0.00 88 1019.9
20190318084405 31 126 0.0 0.0 0.00 0.00 0.00 89 1019.9
20190318083404 32 126 0.0 0.0 0.00 0.00 0.00 89 1019.9
20190318080405 32 126 0.0 0.0 0.00 0.00 0.00 88 1019.9
20190318075405 32 126 0.0 0.0 0.00 0.00 0.00 88 1019.9
20190318065406 33 126 0.0 0.0 0.00 0.00 0.00 86 1020.6
20190318063405 33 126 0.0 0.0 0.00 0.00 0.00 81 1020.6
20190318061406 34 126 0.0 0.0 0.00 0.00 0.00 82 1020.6
20190318060406 34 126 0.0 0.0 0.00 0.00 0.00 83 1020.6
20190318053405 34 126 0.0 0.0 0.00 0.00 0.00 81 1020.9
20190318052404 34 126 0.0 0.0 0.00 0.00 0.00 81 1020.9
20190318051406 34 126 0.0 0.0 0.00 0.00 0.00 78 1020.9
20190318050405 34 126 0.0 0.0 0.00 0.00 0.00 78 1020.9
20190318044404 34 126 0.0 0.0 0.00 0.00 0.00 78 1021.3
20190318043405 35 126 0.0 0.0 0.00 0.00 0.00 77 1021.3
20190318040404 35 126 0.0 0.0 0.00 0.00 0.00 74 1021.3
20190318034406 36 126 0.0 0.0 0.00 0.00 0.00 74 1021.3
20190318033406 36 126 0.0 0.0 0.00 0.00 0.00 74 1021.3
20190318025406 37 126 0.0 0.0 0.00 0.00 0.00 69 1021.3
20190318024405 38 126 0.0 0.0 0.00 0.00 0.00 68 1021.3
20190318020405 39 126 0.0 0.0 0.00 0.00 0.00 65 1020.9
20190318015406 40 126 0.0 0.0 0.00 0.00 0.00 66 1020.9
20190318014406 40 126 0.0 0.0 0.00 0.00 0.00 67 1020.9
20190318010405 42 126 0.0 0.0 0.00 0.00 0.00 58 1020.9
20190318004405 43 126 0.0 0.0 0.00 0.00 0.00 57 1020.6
20190318002405 45 126 0.0 0.0 0.00 0.00 0.00 53 1020.6
20190317232405 51 126 0.0 0.0 0.00 0.00 0.00 46 1020.6
20190317225406 53 126 0.0 0.0 0.00 0.00 0.00 38 1020.3
20190317223406 54 126 0.0 0.0 0.00 0.00 0.00 35 1019.9
20190317222405 54 126 0.0 0.0 0.00 0.00 0.00 32 1019.9
20190317214406 56 131 0.0 0.0 0.00 0.00 0.00 32 1019.9
20190317212406 56 28 0.0 0.0 0.00 0.00 0.00 31 1019.9
20190317211405 56 28 0.0 0.0 0.00 0.00 0.00 31 1019.9
20190317210406 56 209 0.0 0.0 0.00 0.00 0.00 30 1020.3
20190317205407 56 233 0.0 0.0 0.00 0.00 0.00 32 1020.3
20190317202405 57 317 0.0 0.0 0.00 0.00 0.00 30 1020.3
20190317201405 57 198 0.0 0.0 0.00 0.00 0.00 28 1020.6
20190317194405 57 360 1.0 2.0 0.00 0.00 0.00 29 1020.6
20190317193406 57 280 0.0 0.0 0.00 0.00 0.00 31 1020.6
20190317192405 57 229 1.0 0.0 0.00 0.00 0.00 28 1020.9
20190317190406 57 355 0.0 0.0 0.00 0.00 0.00 31 1021.3
20190317185405 57 126 1.0 0.0 0.00 0.00 0.00 30 1021.6
20190317184406 57 316 0.0 0.0 0.00 0.00 0.00 29 1021.6
20190317183406 57 92 0.0 0.0 0.00 0.00 0.00 29 1022.0
20190317181405 55 313 0.0 1.0 0.00 0.00 0.00 39 1022.3